NOAA 16 DEB, 41715

Orbit data source: Space-Track

NOAA 16 DEB, 41715 is space debris in SSO originally from a launch on Thu, 21 Sep 2000 UTC launched from the Air Force Western Test Range (AFWTR). Debris objects in space refer to the collection of defunct objects orbiting the Earth. Examples of debris include non-operational satellites, rocket bodies, and fragments generated from explosions, collisions, or faulty payload assembly.

Loading next visibility...
Identifier
41715, 2000-055PV
Orbit
SSO
Last TLE update
4 days ago
Origin
Manufacturer
Unknown
Mission
Spacecraft
Bus & Motor
Unknown
Mass
Unknown
Launch date (UTC)
2000-09-21 (25 years ago)
Launch vehicle
Unknown
Launch site
Air Force Western Test Range (AFWTR)
Object type
Payload
Rocket body
Debris
Shape & HBR
Unknown
Radar Cross Section
Small (<0.1 m²)

Expand to show TLE details & history

TLE from 4 days ago
0 NOAA 16 DEB
1 41715U 00055PV  25188.93275997  .00003046  00000-0  12151-2 0  9998
2 41715  98.6521 231.8398 0008909 250.6799 109.3420 14.29242957477315
Epoch: 2025-07-07T22:23Z
TLE epoch observation values (Epoch: 2025-07-07T22:23:10.461Z)
Latitude
0.00002°
Longitude
-30.08879°
Altitude
799.313 km
Speed
7.453 km/s
True Right ascension
15h 27m 21s
True Declination
0° 00' 00"
Sunlit
Object was in full shadow at epoch
Visualization orbit readout
Latitude
-48.90425°
Longitude
143.4363°
Altitude
806.84 km
Speed
7.452 km/s
Apparent Right ascension
07h 32m 28s
Apparent Declination
-67° 08' 60"
Sunlit
Object is in daylight
Visualization observer readout
Local Sidereal Time
23:45:55
Azimuth
149.745° SSE
Elevation
-46.456°
Doppler factor
1
Orbital elements
Apogee altitude
797.793 km
Perigee altitude
785.019 km
Semi-major axis
7,169.543 km
Eccentricity
0.00089
Inclination
98.6521°
RAAN
231.8398°
Arg. of periapsis
250.6799°
True anomaly
Unknown
Mean anomaly
109.342°
Eccentric anomaly
Unknown
Mean motion
3.57525 °/min
Orbital period
100.69 mins
BSTAR
0.0012151
Loading maneuver chart data...
Loading SW <> Apogee altitude chart data...
Loading historical data...
Loading historical data...
Loading historical data...
Loading historical data...
Loading historical data...
Loading historical data...
Loading historical data...

NOAA 16 DEB Visibility forecast

Observer location: undefined°, undefined°

Span
Click to sort rows by Start time (UTC) header in descending order
Start Az.
Max El. time (UTC)
Max El. Az.
Max El.
End time (UTC)
End Az.
4 mins2025-07-11 14:22:52.649Z65.815° ENE2025-07-11 14:24:52.649Z89.466° E13.039°2025-07-11 14:26:52.649Z113.435° SE
9 mins2025-07-11 16:00:52.649Z6.828° NNE2025-07-11 16:04:52.649Z295.45° NW43.132°2025-07-11 16:09:52.649Z204.197° SW
6 mins2025-07-12 01:40:52.649Z100.9° ESE2025-07-12 01:43:52.649Z58.55° ENE19.643°2025-07-12 01:46:52.649Z20.691° NNE
8 mins2025-07-12 03:18:52.649Z190.594° SSW2025-07-12 03:22:52.649Z266.292° W36.838°2025-07-12 03:26:52.649Z331.461° NNW
|